Weather History for KDUJ - March, 2013

Change the Weather History Date:

Sunday, March 24, 2013

  Actual Average Record
Temperature  
Mean Temperature 28 °F 38 °F  
Max Temperature 38 °F 48 °F 65 °F (1976)
Min Temperature 18 °F 28 °F 8 °F (2014)
Degree Days  
Heating Degree Days 37 27  
Month to date heating degree days 855 754  
Since 1 July heating degree days 5578 5777  
Cooling Degree Days 0 0  
Month to date cooling degree days 0 0  
Year to date cooling degree days 0 0  
Moisture  
Dew Point 17 °F    
Average Humidity 66    
Maximum Humidity 91    
Minimum Humidity 40    
Precipitation  
Precipitation 0.00 in 0.12 in 1.37 in (1979)
Month to date precipitation 0.97 2.53  
Sea Level Pressure  
Sea Level Pressure 29.83 in    
Wind  
Wind Speed 7 mph (ENE)    
Max Wind Speed 17 mph    
Max Gust Speed 24 mph    
Visibility 10 miles    
Events      
T = Trace of Precipitation, MM = Missing Value Source: NWS Daily Summary

Daily Weather History Graph

Daily Weather History Graph

Search for Another Location

Airport or City:

Trip Planner

Search our weather history database for the weather conditions in past years. The results will help you decide how hot, cold, wet, or windy it might be!

Date:

Astronomy

Mar. 24, 2013 Rise Set
Actual Time 7:11 AM EDT 7:32 PM EDT
Civil Twilight 6:44 AM EDT 7:59 PM EDT
Nautical Twilight 6:11 AM EDT 8:32 PM EDT
Astronomical Twilight 5:38 AM EDT 9:05 PM EDT
Moon 4:57 PM EDT (3/24) 5:22 AM EDT (3/24)
Length of Visible Light 13h 15m
Length of Day
12h 20m
Waxing Gibbous, 91% of the Moon is Illuminated
Mar 24
Waxing Gibbous
Mar 27
Full
Apr 3
Last Quarter
Apr 10
New
Apr 18
First Quarter

Hourly Weather History & Observations

Time (EDT) Temp. Windchill Dew Point Humidity Pressure Visibility Wind Dir Wind Speed Gust Speed Precip Events Conditions
12:56 AM 21.9 °F 17.2 °F 17.1 °F 82% 30.01 in 10.0 mi NW 3.5 mph - N/A   Clear
1:56 AM 21.0 °F 13.4 °F 17.1 °F 85% 29.95 in 10.0 mi NNE 5.8 mph - N/A   Clear
2:56 AM 21.0 °F - 17.1 °F 85% 29.99 in 10.0 mi Calm Calm - N/A   Clear
3:54 AM 19.4 °F - 17.6 °F 93% 29.90 in 10.0 mi Calm Calm - N/A   Mostly Cloudy
3:56 AM 19.0 °F - 17.1 °F 92% 29.97 in 10.0 mi Calm Calm - N/A   Mostly Cloudy
4:56 AM 19.9 °F - 17.1 °F 89% 29.99 in 10.0 mi Calm Calm - N/A   Overcast
5:56 AM 21.9 °F 17.2 °F 18.0 °F 85% 29.98 in 10.0 mi North 3.5 mph - N/A   Overcast
6:41 AM 19.4 °F - 15.8 °F 86% 29.90 in 10.0 mi Calm Calm - N/A   Scattered Clouds
6:56 AM 19.9 °F - 16.0 °F 85% 29.97 in 10.0 mi Calm Calm - N/A   Clear
7:56 AM 21.0 °F - 18.0 °F 88% 29.98 in 10.0 mi Calm Calm - N/A   Clear
8:56 AM 19.9 °F 14.9 °F 17.1 °F 89% 29.97 in 10.0 mi East 3.5 mph - N/A   Clear
9:56 AM 26.1 °F 20.5 °F 19.0 °F 75% 29.95 in 10.0 mi NE 4.6 mph - N/A   Clear
10:56 AM 28.9 °F 19.8 °F 18.0 °F 64% 29.90 in 10.0 mi ENE 10.4 mph - N/A   Clear
11:56 AM 32.0 °F 25.6 °F 17.1 °F 54% 29.86 in 10.0 mi East 6.9 mph - N/A   Clear
12:56 PM 34.0 °F 26.6 °F 18.0 °F 52% 29.82 in 10.0 mi NE 9.2 mph - N/A   Clear
1:56 PM 36.0 °F 27.1 °F 17.1 °F 46% 29.75 in 10.0 mi ENE 13.8 mph 18.4 mph N/A   Clear
2:56 PM 37.0 °F 30.4 °F 16.0 °F 42% 29.74 in 10.0 mi East 9.2 mph - N/A   Clear
3:56 PM 37.9 °F 30.9 °F 17.1 °F 43% 29.72 in 10.0 mi ENE 10.4 mph - N/A   Clear
4:56 PM 37.9 °F 32.1 °F 17.1 °F 43% 29.71 in 10.0 mi ENE 8.1 mph - N/A   Clear
5:56 PM 37.9 °F 31.5 °F 16.0 °F 41% 29.68 in 10.0 mi East 9.2 mph - N/A   Clear
6:56 PM 37.0 °F 31.0 °F 16.0 °F 42% 29.66 in 10.0 mi East 8.1 mph - N/A   Partly Cloudy
7:56 PM 35.1 °F 29.3 °F 18.0 °F 50% 29.65 in 10.0 mi East 6.9 mph - N/A   Mostly Cloudy
8:56 PM 35.1 °F 25.9 °F 17.1 °F 48% 29.63 in 10.0 mi East 13.8 mph 19.6 mph N/A   Overcast
9:56 PM 35.1 °F 27.9 °F 17.1 °F 48% 29.62 in 10.0 mi ESE 9.2 mph 19.6 mph N/A   Overcast
10:56 PM 34.0 °F 25.0 °F 17.1 °F 50% 29.61 in 10.0 mi East 12.7 mph 20.7 mph N/A   Overcast
11:56 PM 34.0 °F 26.0 °F 18.0 °F 52% 29.58 in 10.0 mi East 10.4 mph 19.6 mph N/A   Overcast